[[{"header":{"parameterUnit":"m.s-1","parameterCategory":1,"la1":30.2991,"la2":30.254,"lo1":-89.0895,"lo2":-89.0444,"dy":0.0017,"dx":0.0017,"nx":28,"ny":28,"refTime":"2024-05-24T09:00:00:Z","depth":0,"parameterNumber":2,"parameterNumberName":"U-component_of_WINDS"},"data":[0,0,0,0,0,0,0,0,0,0,0,0,0,0,0,0,0,0,0,0,0,0,0,0,0,0,0,0,0,0,0,0,0,0,0,0,0,0,0,0,0,0,0,0,0,0,0,0,0,0,0,0,0,0,0,0,0,0,3.0303,3.0304,0,3.0422,3.0423,3.0424,3.0403,3.0401,3.0399,3.0397,3.0517,3.0522,3.0527,0,0,0,0,0,0,0,0,0,0,0,0,0,3.0057,3.0061,3.0303,3.0304,3.0306,3.0421,3.0423,3.0425,3.0403,3.0401,3.0398,3.0396,3.0515,3.0521,3.0527,0,0,0,0,0,0,0,0,0,0,0,0,0,3.0168,3.0063,3.0303,3.0309,3.0311,3.0421,3.0423,3.0425,3.0404,3.0401,3.0397,3.0394,3.0513,3.052,3.0528,3.0639,0,0,3.0552,3.0555,0,0,0,0,0,0,0,0,3.0162,3.0177,3.0307,3.0309,3.0311,3.0394,3.038,3.0497,3.0405,3.0368,3.0397,3.0393,3.0478,3.0489,3.0518,3.0644,3.065,3.0552,3.0557,3.056,3.0563,0,0,0,0,0,0,0,3.0154,3.0172,3.035,3.0309,3.0311,3.0306,3.0318,3.0402,3.044,3.0371,3.037,3.0384,3.0479,3.051,3.0521,3.0651,3.0552,3.0559,3.0564,3.0567,3.0875,3.0878,0,0,0,0,0,0,3.0145,3.0166,3.0346,3.0353,3.0227,3.0313,3.0327,3.0371,3.0439,3.0446,3.0387,3.0383,3.0499,3.0512,3.0525,3.0659,3.056,3.0568,3.0572,3.0871,3.0876,3.0879,0,0,0,0,0,0,3.014,3.0161,3.0341,3.0259,3.0282,3.032,3.037,3.0375,3.0406,3.0451,3.0457,3.0412,3.0497,3.0514,3.0611,3.0662,3.0571,3.0578,3.0867,3.0873,3.0877,3.0927,0,0,0,0,0,0,3.0133,3.0159,3.0202,3.0261,3.0286,3.0426,3.0373,3.0379,3.042,3.0416,3.0476,3.0483,3.0496,3.0599,3.0618,3.0671,3.0584,3.0863,3.0869,3.0876,3.0921,3.0934,3.0944,0,0,0,0,0,3.0124,3.0211,3.0204,3.0226,3.0341,3.0429,3.0444,3.0457,3.0424,3.0467,3.0496,3.0481,3.0654,3.0609,3.0631,3.0687,3.0859,3.0868,3.0875,3.0916,3.0931,3.0944,0,0,0,0,0,0,3.0157,3.0219,3.0212,3.0321,3.037,3.0425,3.048,3.0472,3.0531,3.0525,3.0538,3.0552,3.0651,3.0679,3.0628,3.0798,3.0752,3.0765,3.0776,3.0791,3.0802,3.0793,3.0591,0,0,0,0,0,3.0177,3.0244,3.0294,3.0385,3.041,3.0441,3.048,3.0486,3.0537,3.0557,3.0593,3.0643,3.0708,3.0751,3.0814,3.0926,3.0938,3.0975,3.0986,3.0996,3.1006,3.1067,3.1084,3.0906,3.0905,3.0905,0,0,3.0219,3.0261,3.0302,3.0393,3.0432,3.05,3.0458,3.0533,3.0583,3.0568,3.0662,3.069,3.0747,3.0852,3.0899,3.0878,3.1058,3.1006,3.1013,3.1018,3.1077,3.1094,3.1109,3.0911,3.091,3.0909,0,0,3.033,3.0369,3.0449,3.0489,3.0548,3.0568,3.0587,3.0644,3.0662,3.0757,3.0747,3.0808,3.092,3.0961,3.0996,3.1124,3.1112,3.1144,3.1204,3.1263,3.1277,3.1289,3.1334,3.135,3.1154,3.1154,3.1154,0,3.0374,3.0477,3.049,3.0566,3.0606,3.0597,3.0678,3.0716,3.0792,3.082,3.0795,3.0936,3.0974,3.1088,3.1119,3.1148,3.117,3.1136,3.1274,3.1287,3.1299,3.1341,3.1358,3.1158,3.1157,3.1157,3.1157,0,3.0528,3.06,3.0658,3.0733,3.0779,3.0857,3.0882,3.0928,3.093,3.0953,3.1049,3.1094,3.1165,3.1193,3.1196,3.1308,3.1292,3.1271,3.1225,3.1319,3.1359,3.1376,3.1163,3.1161,3.116,3.1159,0,0,3.0662,3.0744,3.0765,3.0799,3.0864,3.092,3.0998,3.1068,3.1107,3.116,3.1225,3.1321,3.1302,3.1342,3.1349,3.1402,3.1499,3.1373,3.1375,3.1395,3.1625,3.164,3.1659,3.1493,3.1496,3.1498,3.162,0,3.0779,3.0916,3.0931,3.1053,3.1119,3.1112,3.1179,3.1227,3.125,3.1309,3.1335,3.1403,3.1372,3.1396,3.1448,3.1476,3.1545,3.1468,3.1552,3.1555,3.1537,3.168,3.1697,3.1809,3.1636,3.1638,3.164,0,3.0933,3.0991,3.1121,3.1177,3.1205,3.1266,3.1332,3.1389,3.1442,3.1456,3.1501,3.1502,3.1581,3.1534,3.1643,3.159,3.1626,3.1645,3.165,3.1657,3.1603,3.1691,3.1845,3.1862,3.1666,3.1664,3.1662,0,3.1017,3.1128,3.122,3.1249,3.1317,3.136,3.139,3.1441,3.1482,3.154,3.1567,3.1633,3.1669,3.172,3.1739,3.1702,3.1847,3.1801,3.186,3.1859,3.189,3.1887,3.2051,3.1914,3.1914,3.1914,3.1914,0,3.1145,3.1224,3.1258,3.1314,3.1403,3.1419,3.1506,3.1534,3.1579,3.1641,3.1638,3.1696,3.1717,3.1778,3.1793,3.1881,3.1898,3.191,3.1913,3.191,3.1909,3.1933,3.1925,3.1918,3.1917,3.1916,3.1916,0,3.1253,3.1279,3.1378,3.1435,3.1451,3.1514,3.1562,3.1617,3.164,3.1717,3.1736,3.1772,3.1844,3.1868,3.1955,3.1965,3.2067,3.2064,3.2049,3.2049,3.2107,3.2101,3.2291,3.2317,3.2164,3.2165,3.2167,0,3.1332,3.1393,3.1457,3.1498,3.153,3.1596,3.1639,3.1658,3.1702,3.1768,3.1814,3.1886,3.1943,3.2058,3.2092,3.2158,3.2156,3.2218,3.2165,3.216,3.2156,3.2151,3.2157,3.2227,3.2229,3.223,3.2231,0,3.147,3.148,3.1542,3.1609,3.166,3.1714,3.1765,3.1799,3.1825,3.1875,3.1949,3.1994,3.2083,3.2153,3.2221,3.2252,3.2246,3.2248,3.2265,3.2262,3.225,3.2256,3.2075,3.2243,3.2242,3.2241,3.224,3.224,3.1566,3.1619,3.1673,3.1742,3.1783,3.1831,3.1885,3.1915,3.1977,3.2051,3.2058,3.2138,3.219,3.228,3.2315,3.2377,3.2359,3.2384,3.239,3.2395,3.24,3.2242,3.2389,3.2389,3.2389,3.2388,3.2388,0,3.1703,3.1737,3.1801,3.1873,3.1928,3.1918,3.1975,3.2021,3.2091,3.214,3.2198,3.2282,3.2351,3.239,3.2459,3.2501,3.25,3.2518,3.2515,3.2522,3.2412,3.239,3.2518,3.2518,3.2518,3.2518,3.2518,3.2518,3.1781,3.1871,3.1887,3.1998,3.2031,3.211,3.2143,3.2187,3.2227,3.2322,3.2379,3.2404,3.245,3.2522,3.2585,3.2594,3.2619,3.2639,3.2647,3.2543,3.253,3.2517,3.2496,3.2645,3.2645,3.2752,3.2753,3.2754]},{"header":{"parameterUnit":"m.s-1","parameterCategory":1,"la1":30.2991,"la2":30.254,"lo1":-89.0895,"lo2":-89.0444,"dy":0.0017,"dx":0.0017,"nx":28,"ny":28,"refTime":"2024-05-24T09:00:00:Z","depth":0,"parameterNumber":3,"parameterNumberName":"V-component_of_WINDS"},"data":[0,0,0,0,0,0,0,0,0,0,0,0,0,0,0,0,0,0,0,0,0,0,0,0,0,0,0,0,0,0,0,0,0,0,0,0,0,0,0,0,0,0,0,0,0,0,0,0,0,0,0,0,0,0,0,0,0,0,1.5584,1.5585,0,1.5621,1.5621,1.5622,1.5595,1.5594,1.5593,1.5592,1.5629,1.5631,1.5633,0,0,0,0,0,0,0,0,0,0,0,0,0,1.5493,1.5494,1.5584,1.5585,1.5585,1.5621,1.5621,1.5622,1.5595,1.5594,1.5593,1.5591,1.5628,1.5631,1.5633,0,0,0,0,0,0,0,0,0,0,0,0,0,1.5531,1.5495,1.5584,1.5576,1.5576,1.5621,1.5621,1.5622,1.5596,1.5594,1.5592,1.5591,1.5627,1.563,1.5633,1.5688,0,0,1.5643,1.5644,0,0,0,0,0,0,0,0,1.5529,1.5534,1.5577,1.5577,1.5577,1.5602,1.5602,1.5644,1.5596,1.5588,1.5592,1.559,1.5621,1.5625,1.5635,1.5689,1.5691,1.5643,1.5645,1.5646,1.5647,0,0,0,0,0,0,0,1.5526,1.5533,1.5599,1.5578,1.5578,1.5571,1.5575,1.561,1.5614,1.5589,1.5587,1.5592,1.5621,1.5632,1.5636,1.5691,1.5643,1.5646,1.5648,1.5649,1.5793,1.5795,0,0,0,0,0,0,1.5524,1.5531,1.5598,1.56,1.5548,1.5574,1.5578,1.5595,1.5614,1.5615,1.5593,1.559,1.5628,1.5632,1.5637,1.5703,1.5646,1.5649,1.5651,1.5791,1.5793,1.5795,0,0,0,0,0,0,1.5522,1.553,1.5596,1.5565,1.5573,1.5578,1.5597,1.5597,1.5609,1.5617,1.5617,1.5604,1.5627,1.5633,1.5676,1.5704,1.5651,1.5654,1.5788,1.5792,1.5794,1.5834,0,0,0,0,0,0,1.552,1.553,1.555,1.5565,1.5574,1.5634,1.5599,1.5599,1.5614,1.5611,1.5628,1.5629,1.5626,1.5671,1.5679,1.5707,1.5656,1.5786,1.579,1.5793,1.583,1.5838,1.5844,0,0,0,0,0,1.5517,1.556,1.5552,1.556,1.56,1.5635,1.5641,1.5637,1.5617,1.5637,1.5643,1.5628,1.5699,1.5676,1.5684,1.5714,1.5784,1.5789,1.5793,1.5827,1.5836,1.5844,0,0,0,0,0,0,1.5548,1.5562,1.5553,1.5602,1.5618,1.5631,1.5657,1.5647,1.5668,1.5664,1.5658,1.5662,1.5707,1.5714,1.5688,1.5768,1.5739,1.5745,1.5761,1.577,1.5777,1.5775,1.5659,0,0,0,0,0,1.5561,1.5588,1.5598,1.5641,1.5649,1.5652,1.5667,1.5663,1.5679,1.5686,1.5694,1.571,1.5736,1.5753,1.5778,1.5831,1.5834,1.5855,1.5862,1.5868,1.5874,1.5903,1.5913,1.581,1.581,1.581,0,0,1.5587,1.5598,1.5615,1.5648,1.5659,1.5688,1.5658,1.5689,1.5711,1.569,1.5731,1.5738,1.5756,1.5804,1.5826,1.5812,1.5903,1.5874,1.5878,1.5881,1.5909,1.5919,1.5927,1.5813,1.5812,1.5812,0,0,1.565,1.5661,1.5698,1.571,1.5729,1.573,1.5739,1.5754,1.5758,1.5799,1.5784,1.581,1.5855,1.5868,1.5881,1.595,1.5938,1.5958,1.5995,1.6024,1.6032,1.604,1.6065,1.6075,1.5963,1.5963,1.5964,0,1.5681,1.5723,1.5718,1.5751,1.5766,1.5749,1.5787,1.5799,1.5824,1.5835,1.5819,1.5875,1.5886,1.5938,1.5955,1.5965,1.5976,1.5956,1.6032,1.6039,1.6046,1.607,1.608,1.5966,1.5966,1.5965,1.5965,0,1.5761,1.5791,1.5818,1.5844,1.5862,1.5897,1.5897,1.5916,1.591,1.5914,1.5956,1.5969,1.5996,1.6007,1.6001,1.6059,1.6049,1.6032,1.6003,1.6058,1.6081,1.609,1.5969,1.5968,1.5968,1.5967,0,0,1.5845,1.5867,1.5877,1.5889,1.5908,1.5932,1.5966,1.5993,1.601,1.6028,1.6057,1.6096,1.6081,1.6095,1.6091,1.6116,1.6171,1.6096,1.6096,1.6111,1.6236,1.6249,1.626,1.6163,1.6164,1.6166,1.6235,0,1.5909,1.597,1.5967,1.6024,1.6052,1.6036,1.6067,1.6082,1.6086,1.6111,1.6115,1.6143,1.612,1.6129,1.6153,1.6159,1.6196,1.6154,1.6191,1.6192,1.6188,1.6272,1.6286,1.6351,1.6244,1.6245,1.6246,0,1.5993,1.6015,1.6075,1.6091,1.6103,1.613,1.6155,1.6178,1.6196,1.6197,1.6214,1.6205,1.6241,1.621,1.6259,1.6231,1.6246,1.6251,1.6253,1.6257,1.6223,1.6279,1.6371,1.6381,1.626,1.6259,1.6258,0,1.605,1.6094,1.6136,1.6146,1.6165,1.6185,1.6194,1.621,1.6226,1.6248,1.6259,1.6284,1.6298,1.6317,1.6316,1.6294,1.6367,1.6336,1.6369,1.637,1.6386,1.6385,1.6483,1.6394,1.6394,1.6394,1.6393,0,1.6123,1.6161,1.6162,1.6188,1.623,1.6225,1.6267,1.6274,1.6288,1.6315,1.6303,1.6328,1.6325,1.6351,1.635,1.6392,1.6398,1.64,1.64,1.6402,1.6402,1.6413,1.6408,1.6396,1.6396,1.6395,1.6395,0,1.6194,1.6196,1.6241,1.6255,1.626,1.629,1.6303,1.6328,1.6331,1.6366,1.6374,1.6379,1.6409,1.641,1.6444,1.6444,1.6495,1.6489,1.6489,1.6488,1.6523,1.652,1.6631,1.6646,1.6546,1.6547,1.6548,0,1.6241,1.627,1.6288,1.6305,1.6316,1.6344,1.6361,1.6358,1.6376,1.6398,1.6421,1.645,1.6473,1.6522,1.6529,1.6555,1.655,1.6587,1.6554,1.6556,1.6552,1.6551,1.6555,1.6594,1.6595,1.6596,1.6597,0,1.6325,1.6325,1.635,1.6376,1.6396,1.6417,1.6435,1.645,1.6449,1.6471,1.6502,1.652,1.6555,1.6585,1.661,1.6619,1.6609,1.6607,1.6617,1.662,1.6619,1.6621,1.6508,1.6605,1.6604,1.6603,1.6603,1.6603,1.6386,1.6411,1.6428,1.6457,1.6471,1.6489,1.6513,1.652,1.6546,1.6575,1.6571,1.6606,1.6623,1.6656,1.6668,1.6695,1.6682,1.6696,1.6699,1.6703,1.6707,1.6614,1.67,1.6699,1.6699,1.6699,1.6699,0,1.647,1.648,1.6507,1.6534,1.6557,1.6544,1.6564,1.6585,1.6615,1.6632,1.6656,1.6692,1.672,1.673,1.6757,1.6777,1.6773,1.6785,1.6784,1.6787,1.6716,1.6706,1.6788,1.6788,1.6788,1.6788,1.6788,1.6788,1.6517,1.6559,1.6561,1.6611,1.6621,1.6655,1.6668,1.6685,1.6698,1.6739,1.6763,1.6769,1.6783,1.6812,1.6838,1.684,1.6851,1.6865,1.6866,1.68,1.6791,1.6783,1.6773,1.6868,1.6868,1.6933,1.6934,1.6934]}]]